M I D A S
Marine Information and Data Acquisition System
Tripno 1832 of the Zeeleeuw from 2009-09-08 06:42:32 to 2009-09-08 15:46:46
Back to CruiseResearch ActivitiesStationsMapUnderway DataData graphs

EquipmentUnitsComments
TimeDGPSUTC
LatitudeDGPSDM.mWGS84
LongitudeDGPSDM.mWGS84
SpeedMeteo Stationm/sRelative wind speed
DirectionMeteo StationdegRelative wind direction
TemperatureMeteo Stationdeg CelciusAir temperature
PressureMeteo StationPaAtmospheric pressure
HumidityMeteo Station%Relative humidity
Missing or incorrect values are displayed as -999
Metereological data collected by the RV Zeeleeuw from 2009-09-08 06:35:41 to 2009-09-08 17:01:32
Time Latitude Longitude Speed Direction Temperature Pressure Humidity
2009-09-08 06:36 51°13.681 2°55.884 1.9 30 15.7 102000 40
2009-09-08 06:37 51°13.695 2°55.787 3.2 34 15.7 102000 41
2009-09-08 06:38 51°13.694 2°55.738 3.1 30 15.7 102000 43
2009-09-08 06:39 51°13.717 2°55.737 0.8 26 15.7 102000 42
2009-09-08 06:40 51°13.777 2°55.683 0.3 250 15.7 102000 40
2009-09-08 06:41 51°13.887 2°55.594 1.5 324 15.8 102000 42
2009-09-08 06:42 51°14.022 2°55.498 2.5 324 15.8 102000 43
2009-09-08 06:43 51°14.173 2°55.374 2.4 323 15.9 102000 43
2009-09-08 06:44 51°14.304 2°55.179 2.4 242 15.9 102000 42
2009-09-08 06:45 51°14.441 2°54.968 1.7 19 16 101990 41
2009-09-08 06:46 51°14.599 2°54.8 5 333 16.2 101990 42
2009-09-08 06:47 51°14.759 2°54.638 4.1 322 16.4 102000 42
2009-09-08 06:48 51°14.917 2°54.475 3.6 318 16.5 101990 41
2009-09-08 06:49 51°15.077 2°54.316 3 39 16.6 101990 43
2009-09-08 06:50 51°15.238 2°54.16 2.5 238 16.7 101990 43
2009-09-08 06:51 51°15.4 2°54.004 2.8 232 16.8 101990 42
2009-09-08 06:52 51°15.566 2°53.852 3.3 32 16.8 102000 40
2009-09-08 06:53 51°15.73 2°53.695 3.5 37 16.9 102000 42
2009-09-08 06:54 51°15.895 2°53.538 3.9 36 16.9 102000 42
2009-09-08 06:55 51°16.059 2°53.377 3.2 40 16.9 102000 42
2009-09-08 06:56 51°16.224 2°53.22 3.5 232 16.9 102000 42
2009-09-08 06:57 51°16.39 2°53.062 3.3 235 16.9 102000 42
2009-09-08 06:58 51°16.555 2°52.904 2.9 32 16.9 102000 41
2009-09-08 06:59 51°16.721 2°52.744 2.6 233 16.9 102000 41
2009-09-08 07:00 51°16.891 2°52.617 1.6 29 16.9 102000 42
2009-09-08 07:01 51°17.07 2°52.533 2.1 316 16.9 102000 43
2009-09-08 07:02 51°17.252 2°52.485 1.5 332 17 102000 41
2009-09-08 07:03 51°17.435 2°52.457 1 336 17 101990 41
2009-09-08 07:04 51°17.619 2°52.429 1.2 341 17 101990 42
2009-09-08 07:05 51°17.804 2°52.405 1.3 333 17 101990 43
2009-09-08 07:06 51°17.989 2°52.379 1.3 332 17 101990 43
2009-09-08 07:07 51°18.174 2°52.345 1.5 333 17.1 101990 42
2009-09-08 07:08 51°18.36 2°52.31 1.8 326 17.2 101990 40
2009-09-08 07:09 51°18.546 2°52.271 1.4 38 17.3 101990 44
2009-09-08 07:10 51°18.733 2°52.233 2.4 324 17.4 101990 41
2009-09-08 07:11 51°18.92 2°52.195 1.5 324 17.5 101990 43
2009-09-08 07:12 51°19.105 2°52.147 1.3 323 17.5 101990 42
2009-09-08 07:13 51°19.291 2°52.103 1.5 326 17.5 101990 44
2009-09-08 07:14 51°19.477 2°52.064 1.8 40 17.6 101990 44
2009-09-08 07:15 51°19.659 2°51.977 2 234 17.6 101990 43
2009-09-08 07:16 51°19.841 2°51.88 2.5 27 17.6 101990 42
2009-09-08 07:17 51°20.023 2°51.783 2.2 232 17.7 101990 41
2009-09-08 07:18 51°20.205 2°51.686 2.3 23 17.7 101990 44
2009-09-08 07:19 51°20.39 2°51.59 2.2 32 17.6 101990 43
2009-09-08 07:20 51°20.575 2°51.494 2.6 232 17.6 101990 41
2009-09-08 07:21 51°20.76 2°51.4 2.7 232 17.6 102000 43
2009-09-08 07:22 51°20.946 2°51.305 3.1 39 17.7 102000 44
2009-09-08 07:23 51°21.131 2°51.209 3.7 35 17.7 102000 44
2009-09-08 07:24 51°21.313 2°51.111 2.8 34 17.6 102000 41
2009-09-08 07:25 51°21.495 2°51.014 2.9 38 17.7 102000 44
2009-09-08 07:26 51°21.677 2°50.92 3 242 17.6 102000 42
2009-09-08 07:27 51°21.86 2°50.827 2.6 22 17.6 102000 42
2009-09-08 07:28 51°22.044 2°50.736 2.5 234 17.6 102000 44
2009-09-08 07:29 51°22.228 2°50.644 3.1 34 17.6 102000 44
2009-09-08 07:30 51°22.412 2°50.552 2.8 40 17.6 102000 42
2009-09-08 07:31 51°22.596 2°50.457 3.4 32 17.6 102000 44
2009-09-08 07:32 51°22.774 2°50.337 3.9 27 17.6 102000 41
2009-09-08 07:33 51°22.951 2°50.214 3.9 236 17.6 102000 44
2009-09-08 07:34 51°23.128 2°50.091 3.2 34 17.6 102000 43
2009-09-08 07:35 51°23.307 2°49.972 3.4 236 17.6 102000 43
2009-09-08 07:36 51°23.485 2°49.852 3.2 35 17.6 102000 44
2009-09-08 07:37 51°23.664 2°49.732 3.3 237 17.6 102000 44
2009-09-08 07:38 51°23.841 2°49.611 4.1 29 17.6 102000 44
2009-09-08 07:39 51°24.019 2°49.489 3.5 29 17.6 102000 44
2009-09-08 07:40 51°24.196 2°49.365 4.4 232 17.7 102000 42
2009-09-08 07:41 51°24.372 2°49.239 3.6 28 17.7 102000 43
2009-09-08 07:42 51°24.549 2°49.115 3.6 32 17.6 102000 42
2009-09-08 07:43 51°24.726 2°48.992 4 20 17.6 102000 42
2009-09-08 07:44 51°24.878 2°48.88 3.7 258 17.6 102000 44
2009-09-08 07:45 51°25 2°48.796 2.7 256 17.7 102000 44
2009-09-08 07:46 51°25.118 2°48.735 2.1 269 17.7 102000 44
2009-09-08 07:47 51°25.2 2°48.7 1.8 38 17.7 102000 44
2009-09-08 07:48 51°25.245 2°48.722 3.7 26 17.7 102010 43
2009-09-08 07:49 51°25.237 2°48.766 5 360 17.8 102010 44
2009-09-08 07:50 51°25.189 2°48.773 5.5 341 17.6 102000 43
2009-09-08 07:51 51°25.138 2°48.72 5.9 324 17.6 102010 44
2009-09-08 07:52 51°25.1 2°48.621 6.3 34 17.7 102000 43
2009-09-08 07:53 51°25.092 2°48.511 4.4 246 17.7 102000 43
2009-09-08 07:54 51°25.113 2°48.433 3.6 269 17.8 102010 43
2009-09-08 07:55 51°25.142 2°48.397 3.1 33 17.8 102010 42
2009-09-08 07:56 51°25.163 2°48.397 3.8 36 17.9 102010 44
2009-09-08 07:57 51°25.165 2°48.43 4.2 13 17.9 102010 44
2009-09-08 07:58 51°25.131 2°48.505 6 -999 17.8 102010 43
2009-09-08 07:59 51°25.074 2°48.532 6 347 17.7 102010 44
2009-09-08 08:00 51°25.013 2°48.516 5.8 339 17.7 102010 44
2009-09-08 08:01 51°24.957 2°48.462 5.9 330 17.7 102010 45
2009-09-08 08:02 51°24.913 2°48.383 5.6 323 17.7 102010 44
2009-09-08 08:03 51°24.875 2°48.3 5.2 323 17.8 102010 43
2009-09-08 08:04 51°24.84 2°48.215 5.5 320 17.8 102000 44
2009-09-08 08:05 51°24.813 2°48.124 5.2 34 17.9 102000 44
2009-09-08 08:06 51°24.795 2°48.029 5 31 17.9 102000 45
2009-09-08 08:07 51°24.781 2°47.932 5.5 33 17.8 102000 44
2009-09-08 08:08 51°24.768 2°47.834 4.3 32 17.8 102000 43
2009-09-08 08:09 51°24.756 2°47.737 5.5 37 17.8 102000 45
2009-09-08 08:10 51°24.741 2°47.64 4.8 34 17.7 102000 44
2009-09-08 08:11 51°24.727 2°47.543 5 39 17.8 102000 43
2009-09-08 08:12 51°24.713 2°47.446 4.1 40 17.8 102010 42
2009-09-08 08:13 51°24.698 2°47.348 5.1 37 17.9 102000 44
2009-09-08 08:14 51°24.683 2°47.251 4.2 37 17.8 102000 43
2009-09-08 08:15 51°24.663 2°47.157 5.1 318 17.8 102000 43
2009-09-08 08:16 51°24.639 2°47.065 4.7 319 17.9 102010 45
2009-09-08 08:17 51°24.608 2°46.979 5.2 324 17.9 102010 44
2009-09-08 08:18 51°24.573 2°46.896 4.9 327 17.9 102010 45
2009-09-08 08:19 51°24.534 2°46.818 4.5 331 17.9 102020 43
2009-09-08 08:20 51°24.492 2°46.742 4.5 330 17.9 102020 42
2009-09-08 08:21 51°24.45 2°46.665 5.2 325 17.9 102020 43
2009-09-08 08:22 51°24.41 2°46.586 5 326 17.9 102020 43
2009-09-08 08:23 51°24.369 2°46.506 3.9 328 18 102020 44
2009-09-08 08:24 51°24.327 2°46.426 4.5 327 18 102020 44
2009-09-08 08:25 51°24.285 2°46.345 5.1 326 18 102020 45
2009-09-08 08:26 51°24.244 2°46.266 4.5 327 18 102020 45
2009-09-08 08:27 51°24.204 2°46.186 5.5 324 18 102020 44
2009-09-08 08:28 51°24.163 2°46.104 5.6 320 18.1 102020 42
2009-09-08 08:29 51°24.132 2°46.014 4.7 231 18.1 102020 45
2009-09-08 08:30 51°24.117 2°45.918 4.7 241 18 102010 44
2009-09-08 08:31 51°24.112 2°45.819 4.2 245 18.1 102020 45
2009-09-08 08:32 51°24.116 2°45.719 5.5 255 18.2 102010 45
2009-09-08 08:33 51°24.138 2°45.636 3 269 18.2 102020 45
2009-09-08 08:34 51°24.17 2°45.577 2.6 32 18.3 102020 45
2009-09-08 08:35 51°24.196 2°45.568 3.5 30 18.3 102020 43
2009-09-08 08:36 51°24.192 2°45.594 4.7 12 18.2 102010 44
2009-09-08 08:37 51°24.174 2°45.601 4.7 10 18.2 102010 45
2009-09-08 08:38 51°24.144 2°45.653 4.6 6 18.1 102010 45
2009-09-08 08:39 51°24.161 2°45.818 4.1 1 18.1 102000 45
2009-09-08 08:40 51°24.204 2°46.017 5.5 359 18 102010 45
2009-09-08 08:41 51°24.259 2°46.258 5.2 356 17.9 102000 45
2009-09-08 08:42 51°24.314 2°46.502 5.2 357 17.9 102000 45
2009-09-08 08:43 51°24.371 2°46.743 5.5 359 17.8 102010 45
2009-09-08 08:44 51°24.444 2°46.976 5.5 356 17.8 102010 45
2009-09-08 08:45 51°24.517 2°47.21 5.1 356 17.8 102010 45
2009-09-08 08:46 51°24.592 2°47.441 5.2 357 17.8 102010 44
2009-09-08 08:47 51°24.669 2°47.67 5.4 356 17.8 102010 45
2009-09-08 08:48 51°24.74 2°47.903 5.5 357 17.8 102010 45
2009-09-08 08:49 51°24.808 2°48.138 5.7 357 17.8 102010 45
2009-09-08 08:50 51°24.908 2°48.339 4.2 356 17.8 102010 46
2009-09-08 08:51 51°24.997 2°48.487 4.1 13 17.7 102010 44
2009-09-08 08:52 51°24.979 2°48.558 5.2 352 17.8 102010 44
2009-09-08 08:53 51°24.923 2°48.551 5.6 328 17.9 102010 47
2009-09-08 08:54 51°24.881 2°48.491 3.7 28 18 102010 47
2009-09-08 08:55 51°24.867 2°48.456 4.6 255 18.1 102010 45
2009-09-08 08:56 51°24.856 2°48.426 3 263 18.2 102010 46
2009-09-08 08:57 51°24.844 2°48.396 3.2 265 18.2 102010 44
2009-09-08 08:58 51°24.831 2°48.366 3.9 265 18.2 102010 44
2009-09-08 08:59 51°24.819 2°48.335 3.7 267 18.2 102000 44
2009-09-08 09:00 51°24.808 2°48.305 4 270 18.3 102000 43
2009-09-08 09:01 51°24.796 2°48.273 3.9 270 18.3 102000 45
2009-09-08 09:02 51°24.783 2°48.242 3.7 27 18.4 102000 45
2009-09-08 09:03 51°24.771 2°48.212 3.4 29 18.4 102000 44
2009-09-08 09:04 51°24.758 2°48.181 4 22 18.4 102000 43
2009-09-08 09:05 51°24.745 2°48.149 3.8 23 18.4 102000 45
2009-09-08 09:06 51°24.733 2°48.118 3.7 27 18.4 102000 43
2009-09-08 09:07 51°24.721 2°48.088 4.2 29 18.4 102000 45
2009-09-08 09:08 51°24.708 2°48.056 4.2 270 18.5 102000 42
2009-09-08 09:09 51°24.695 2°48.026 3.6 269 18.5 102010 45
2009-09-08 09:10 51°24.682 2°47.995 3.3 267 18.6 102010 44
2009-09-08 09:11 51°24.669 2°47.965 3.1 270 18.6 102010 45
2009-09-08 09:12 51°24.657 2°47.936 3.1 270 18.7 102010 44
2009-09-08 09:13 51°24.643 2°47.906 3.5 25 18.7 102020 44
2009-09-08 09:14 51°24.63 2°47.877 4 26 18.6 102010 45
2009-09-08 09:15 51°24.627 2°47.827 3.1 29 18.6 102010 45
2009-09-08 09:16 51°24.66 2°47.762 0.2 22 18.7 102010 44
2009-09-08 09:17 51°24.723 2°47.811 2.6 3 18.7 102000 43
2009-09-08 09:18 51°24.837 2°47.946 4.2 353 18.6 102000 43
2009-09-08 09:19 51°24.968 2°48.099 4.3 349 18.5 102000 46
2009-09-08 09:20 51°25.1 2°48.257 4.6 353 18.3 102000 44
2009-09-08 09:21 51°25.233 2°48.412 4.5 352 18.2 102000 45
2009-09-08 09:22 51°25.363 2°48.574 4.4 356 18.1 101990 45
2009-09-08 09:23 51°25.492 2°48.736 4 356 18.1 102000 46
2009-09-08 09:24 51°25.62 2°48.896 4.3 349 18.1 102000 44
2009-09-08 09:25 51°25.748 2°49.057 4.1 352 18.1 102000 46
2009-09-08 09:26 51°25.879 2°49.214 4.1 351 18.1 102000 45
2009-09-08 09:27 51°26.007 2°49.378 4 352 18.1 102000 45
2009-09-08 09:28 51°26.135 2°49.545 4.4 351 18.1 102000 47
2009-09-08 09:29 51°26.263 2°49.712 4.4 351 18.1 102000 45
2009-09-08 09:30 51°26.392 2°49.881 4.6 348 18.1 102000 47
2009-09-08 09:31 51°26.52 2°50.051 4.3 347 18.1 102000 45
2009-09-08 09:32 51°26.649 2°50.219 4.2 346 18.1 102000 46
2009-09-08 09:33 51°26.777 2°50.389 4.2 349 18.1 102000 45
2009-09-08 09:34 51°26.905 2°50.56 4.1 350 18.1 102000 46
2009-09-08 09:35 51°27.032 2°50.732 3.9 350 18.1 102000 47
2009-09-08 09:36 51°27.158 2°50.904 4.2 347 18 102000 47
2009-09-08 09:37 51°27.285 2°51.076 4.3 345 18.1 102000 46
2009-09-08 09:38 51°27.41 2°51.247 3.8 349 18.1 102000 46
2009-09-08 09:39 51°27.536 2°51.417 4.1 348 18.1 102000 46
2009-09-08 09:40 51°27.663 2°51.584 3.7 348 18 102000 45
2009-09-08 09:41 51°27.789 2°51.75 4 344 18 102000 48
2009-09-08 09:42 51°27.917 2°51.911 3.7 344 18 102010 46
2009-09-08 09:43 51°28.043 2°52.074 3.8 348 18 102010 46
2009-09-08 09:44 51°28.166 2°52.242 3.5 346 18 102000 46
2009-09-08 09:45 51°28.29 2°52.409 3.8 344 18 102000 48
2009-09-08 09:46 51°28.415 2°52.572 3.8 344 18.1 102000 46
2009-09-08 09:47 51°28.542 2°52.732 3.4 345 18.1 102000 47
2009-09-08 09:48 51°28.671 2°52.887 3.6 344 18.1 102000 45
2009-09-08 09:49 51°28.799 2°53.044 3.7 345 18.2 102000 46
2009-09-08 09:50 51°28.925 2°53.203 3.8 343 18.1 102000 48
2009-09-08 09:51 51°29.034 2°53.391 4.4 345 18.2 102000 47
2009-09-08 09:52 51°29.135 2°53.593 4.7 346 18.1 102000 48
2009-09-08 09:53 51°29.239 2°53.789 4.8 346 18.1 102000 46
2009-09-08 09:54 51°29.34 2°53.99 4.3 346 18.1 102000 47
2009-09-08 09:55 51°29.442 2°54.19 4 347 18.1 102000 48
2009-09-08 09:56 51°29.546 2°54.384 4 346 18.1 102000 45
2009-09-08 09:57 51°29.649 2°54.579 4.5 349 18.1 102000 47
2009-09-08 09:58 51°29.751 2°54.775 4 344 18.1 102010 48
2009-09-08 09:59 51°29.854 2°54.972 4.3 343 18.2 102010 48
2009-09-08 10:00 51°29.961 2°55.161 4.6 343 18.3 102010 47
2009-09-08 10:01 51°30.068 2°55.352 4.4 343 18.2 102010 47
2009-09-08 10:02 51°30.175 2°55.546 4.8 345 18.2 102010 46
2009-09-08 10:03 51°30.28 2°55.742 4.9 346 18.2 102000 45
2009-09-08 10:04 51°30.389 2°55.932 4.7 346 18.2 102010 45
2009-09-08 10:05 51°30.5 2°56.121 4.8 345 18.2 102000 47
2009-09-08 10:06 51°30.61 2°56.314 4.8 344 18.2 102010 47
2009-09-08 10:07 51°30.723 2°56.5 4.6 343 18.3 102000 47
2009-09-08 10:08 51°30.832 2°56.691 4.9 342 18.3 102000 47
2009-09-08 10:09 51°30.942 2°56.881 4.7 339 18.4 102000 48
2009-09-08 10:10 51°31.059 2°57.059 4.3 338 18.5 102010 48
2009-09-08 10:11 51°31.176 2°57.236 4.6 339 18.5 102010 47
2009-09-08 10:12 51°31.292 2°57.414 4.1 339 18.6 102010 47
2009-09-08 10:13 51°31.404 2°57.598 4.3 340 18.6 102010 46
2009-09-08 10:14 51°31.518 2°57.777 4 340 18.7 102010 48
2009-09-08 10:15 51°31.639 2°57.945 4.3 341 18.7 102010 48
2009-09-08 10:16 51°31.755 2°58.123 4.2 340 18.8 102010 48
2009-09-08 10:17 51°31.883 2°58.279 3.8 339 18.8 102000 48
2009-09-08 10:18 51°32.028 2°58.398 3.4 336 18.9 102000 48
2009-09-08 10:19 51°32.18 2°58.5 3.3 338 18.9 102010 47
2009-09-08 10:20 51°32.332 2°58.608 3.3 340 18.9 102000 47
2009-09-08 10:21 51°32.484 2°58.72 3.2 340 18.9 102000 48
2009-09-08 10:22 51°32.634 2°58.836 3.5 340 18.9 102000 46
2009-09-08 10:23 51°32.79 2°58.93 3.5 339 18.9 102000 48
2009-09-08 10:24 51°32.951 2°59.004 3 335 18.9 102000 48
2009-09-08 10:25 51°33.111 2°59.07 3.5 338 18.9 101990 46
2009-09-08 10:26 51°33.272 2°59.138 3.5 337 18.9 101990 48
2009-09-08 10:27 51°33.435 2°59.183 3.4 331 19 102000 49
2009-09-08 10:28 51°33.596 2°59.202 2.2 330 19 102000 48
2009-09-08 10:29 51°33.693 2°59.205 -999 331 19.1 102000 48
2009-09-08 10:30 51°33.753 2°59.192 -999 322 19.3 102000 49
2009-09-08 10:31 51°33.801 2°59.183 -999 25 19.5 102000 49
2009-09-08 10:32 51°33.836 2°59.209 1.9 21 19.6 102000 47
2009-09-08 10:34 51°33.886 2°59.27 2 17 19.5 102000 48
2009-09-08 10:35 51°33.931 2°59.323 2.1 10 19.4 102000 47
2009-09-08 10:36 51°33.974 2°59.378 2 15 19.2 101990 47
2009-09-08 10:37 51°34.011 2°59.44 2.1 13 19.1 101990 46
2009-09-08 10:38 51°34.048 2°59.503 1.9 5 19 101990 46
2009-09-08 10:39 51°34.085 2°59.567 2.3 8 19 101990 48
2009-09-08 10:40 51°34.121 2°59.633 2.1 9 19 101980 48
2009-09-08 10:41 51°34.157 2°59.695 1.9 8 18.9 101980 49
2009-09-08 10:42 51°34.195 2°59.759 1.8 12 18.9 101980 48
2009-09-08 10:43 51°34.233 2°59.823 2 10 18.9 101980 49
2009-09-08 10:44 51°34.271 2°59.887 1.8 8 18.8 101980 47
2009-09-08 10:45 51°34.307 2°59.952 1.8 16 18.8 101980 49
2009-09-08 10:46 51°34.344 3°0.015 1.5 16 18.8 101980 47
2009-09-08 10:47 51°34.382 3°0.08 1.8 12 18.8 101980 48
2009-09-08 10:48 51°34.419 3°0.143 1.7 15 18.8 101980 47
2009-09-08 10:49 51°34.456 3°0.206 1.8 16 18.9 101980 47
2009-09-08 10:50 51°34.494 3°0.268 1.8 15 18.9 101980 48
2009-09-08 10:51 51°34.532 3°0.332 1.7 11 18.9 101980 47
2009-09-08 10:52 51°34.568 3°0.396 1.8 12 18.9 101980 47
2009-09-08 10:53 51°34.605 3°0.46 1.9 9 18.8 101980 49
2009-09-08 10:54 51°34.642 3°0.523 1.9 9 18.8 101980 48
2009-09-08 10:55 51°34.68 3°0.586 2 8 18.8 101980 48
2009-09-08 10:56 51°34.718 3°0.65 2 6 18.8 101980 47
2009-09-08 10:57 51°34.757 3°0.713 2.5 8 18.8 101980 48
2009-09-08 10:58 51°34.794 3°0.777 2.2 7 18.7 101970 48
2009-09-08 10:59 51°34.832 3°0.841 2.4 8 18.7 101970 48
2009-09-08 11:00 51°34.87 3°0.905 2.5 7 18.7 101970 50
2009-09-08 11:01 51°34.908 3°0.969 2.7 10 18.7 101970 49
2009-09-08 11:02 51°34.946 3°1.031 2.6 9 18.7 101970 50
2009-09-08 11:03 51°34.983 3°1.094 2.3 13 18.7 101970 50
2009-09-08 11:04 51°35.02 3°1.156 2.7 9 18.7 101970 50
2009-09-08 11:05 51°35.059 3°1.221 2.7 10 18.7 101960 47
2009-09-08 11:06 51°35.083 3°1.301 3.2 359 18.7 101960 50
2009-09-08 11:07 51°35.085 3°1.397 3.8 359 18.7 101960 50
2009-09-08 11:08 51°35.07 3°1.495 3.9 354 18.7 101960 48
2009-09-08 11:09 51°35.036 3°1.59 4.4 351 18.7 101960 50
2009-09-08 11:10 51°34.985 3°1.652 4.1 278 18.6 101960 50
2009-09-08 11:11 51°34.934 3°1.681 3.9 278 18.7 101960 49
2009-09-08 11:12 51°34.889 3°1.692 3.3 281 18.9 101960 48
2009-09-08 11:13 51°34.838 3°1.695 4.3 283 19 101960 49
2009-09-08 11:14 51°34.775 3°1.623 3.6 278 19.1 101960 50
2009-09-08 11:15 51°34.759 3°1.456 4.3 280 19.2 101960 48
2009-09-08 11:16 51°34.735 3°1.209 5.4 278 19.2 101960 50
2009-09-08 11:17 51°34.703 3°0.906 6.2 279 19.2 101950 48
2009-09-08 11:18 51°34.684 3°0.596 5.3 279 19.3 101950 47
2009-09-08 11:19 51°34.675 3°0.355 3.2 286 19.3 101950 49
2009-09-08 11:20 51°34.671 3°0.259 2.1 276 19.3 101960 48
2009-09-08 11:21 51°34.662 3°0.215 1.9 84 19.4 101960 49
2009-09-08 11:22 51°34.652 3°0.183 1.9 75 19.3 101960 47
2009-09-08 11:23 51°34.639 3°0.152 1.9 76 19.4 101950 49
2009-09-08 11:24 51°34.625 3°0.125 2.6 82 19.3 101960 47
2009-09-08 11:25 51°34.61 3°0.099 2.5 9 19.3 101950 47
2009-09-08 11:26 51°34.591 3°0.075 2.1 286 19.3 101950 49
2009-09-08 11:27 51°34.573 3°0.053 2.2 285 19.4 101950 47
2009-09-08 11:28 51°34.554 3°0.032 2.5 283 19.4 101950 49
2009-09-08 11:29 51°34.536 3°0.012 2.4 283 19.5 101960 47
2009-09-08 11:30 51°34.517 2°59.994 3.1 279 19.5 101950 49
2009-09-08 11:31 51°34.499 2°59.977 2.9 277 19.6 101950 49
2009-09-08 11:32 51°34.483 2°59.963 2.2 281 19.6 101950 49
2009-09-08 11:33 51°34.465 2°59.949 2.9 285 19.7 101950 47
2009-09-08 11:34 51°34.447 2°59.935 2.6 278 19.8 101950 49
2009-09-08 11:35 51°34.428 2°59.921 2.8 281 19.8 101950 48
2009-09-08 11:36 51°34.412 2°59.908 2.6 278 19.9 101960 48
2009-09-08 11:37 51°34.394 2°59.894 2.3 278 19.9 101950 46
2009-09-08 11:38 51°34.366 2°59.845 3.7 279 19.9 101950 47
2009-09-08 11:39 51°34.288 2°59.811 4.6 277 19.9 101950 45
2009-09-08 11:40 51°34.199 2°59.912 6.7 277 19.8 101950 47
2009-09-08 11:41 51°34.055 3°0.075 7.9 279 19.7 101950 46
2009-09-08 11:42 51°33.904 3°0.275 7.5 278 19.6 101940 46
2009-09-08 11:43 51°33.777 3°0.516 7.9 280 19.5 101940 48
2009-09-08 11:44 51°33.652 3°0.762 8 279 19.5 101940 47
2009-09-08 11:45 51°33.534 3°1.005 7.1 285 19.5 101940 46
2009-09-08 11:46 51°33.415 3°1.243 7 278 19.5 101950 48
2009-09-08 11:47 51°33.296 3°1.479 7.5 278 19.5 101950 48
2009-09-08 11:48 51°33.175 3°1.712 7 279 19.5 101950 48
2009-09-08 11:49 51°33.053 3°1.946 7.2 283 19.5 101940 48
2009-09-08 11:50 51°32.934 3°2.182 7.7 277 19.4 101940 47
2009-09-08 11:51 51°32.816 3°2.422 7.2 278 19.5 101940 47
2009-09-08 11:52 51°32.698 3°2.664 7 278 19.5 101940 47
2009-09-08 11:53 51°32.577 3°2.908 6.9 282 19.5 101940 48
2009-09-08 11:54 51°32.461 3°3.145 7.4 278 19.6 101940 48
2009-09-08 11:55 51°32.348 3°3.387 7.4 278 19.7 101940 48
2009-09-08 11:56 51°32.23 3°3.62 7.3 279 19.8 101940 47
2009-09-08 11:57 51°32.115 3°3.846 7.3 282 19.9 101940 47
2009-09-08 11:58 51°32.004 3°4.072 7.2 283 19.9 101940 46
2009-09-08 11:59 51°31.891 3°4.297 7.3 283 19.9 101940 48
2009-09-08 12:00 51°31.778 3°4.523 6.8 283 19.9 101940 47
2009-09-08 12:01 51°31.663 3°4.747 7.5 282 19.9 101940 47
2009-09-08 12:02 51°31.553 3°4.975 7.1 276 20 101940 47
2009-09-08 12:03 51°31.44 3°5.202 7.2 284 20 101940 46
2009-09-08 12:04 51°31.324 3°5.427 6.5 277 20.1 101930 45
2009-09-08 12:05 51°31.208 3°5.651 7 280 20 101930 45
2009-09-08 12:06 51°31.088 3°5.872 7.5 281 20.1 101930 47
2009-09-08 12:07 51°30.965 3°6.093 7.5 278 20 101930 46
2009-09-08 12:08 51°30.844 3°6.322 7.5 279 20 101930 46
2009-09-08 12:09 51°30.737 3°6.565 7.6 282 19.9 101930 46
2009-09-08 12:10 51°30.631 3°6.812 7.5 284 20 101930 45
2009-09-08 12:11 51°30.531 3°7.062 6.7 284 20.1 101930 47
2009-09-08 12:12 51°30.427 3°7.309 7.1 279 20 101930 47
2009-09-08 12:13 51°30.316 3°7.549 7.1 284 20.1 101930 48
2009-09-08 12:14 51°30.184 3°7.767 6.7 278 20.2 101930 47
2009-09-08 12:15 51°30.044 3°7.977 6.8 277 20.3 101920 48
2009-09-08 12:16 51°29.904 3°8.188 6.8 277 20.2 101930 48
2009-09-08 12:17 51°29.764 3°8.399 7 279 20.3 101920 49
2009-09-08 12:18 51°29.619 3°8.612 7 278 20.4 101930 49
2009-09-08 12:19 51°29.478 3°8.818 7.2 279 20.3 101920 48
2009-09-08 12:20 51°29.336 3°9.031 7.4 277 20.4 101920 49
2009-09-08 12:21 51°29.195 3°9.246 6.7 283 20.3 101920 48
2009-09-08 12:22 51°29.055 3°9.465 7.2 281 20.3 101920 47
2009-09-08 12:23 51°28.915 3°9.682 6.7 285 20.4 101920 47
2009-09-08 12:24 51°28.773 3°9.897 7.2 280 20.4 101920 47
2009-09-08 12:25 51°28.628 3°10.111 6.7 283 20.5 101920 49
2009-09-08 12:26 51°28.474 3°10.314 7.2 285 20.4 101920 48
2009-09-08 12:27 51°28.323 3°10.52 7.2 276 20.4 101920 48
2009-09-08 12:28 51°28.168 3°10.722 8 281 20.4 101920 47
2009-09-08 12:29 51°28.014 3°10.929 7.3 279 20.5 101910 46
2009-09-08 12:30 51°27.861 3°11.138 7.4 281 20.5 101920 45
2009-09-08 12:31 51°27.707 3°11.349 7.1 282 20.6 101910 45
2009-09-08 12:32 51°27.544 3°11.556 6.9 282 20.6 101910 44
2009-09-08 12:33 51°27.389 3°11.757 6.5 285 20.7 101910 45
2009-09-08 12:34 51°27.237 3°11.954 4.5 283 20.9 101910 44
2009-09-08 12:35 51°27.144 3°12.076 2.9 281 21 101910 44
2009-09-08 12:36 51°27.105 3°12.194 2.3 278 21.2 101920 45
2009-09-08 12:37 51°27.119 3°12.268 1.6 285 21.2 101910 46
2009-09-08 12:38 51°27.145 3°12.338 1.8 279 21.3 101910 45
2009-09-08 12:39 51°27.146 3°12.436 2.1 283 21.3 101910 46
2009-09-08 12:40 51°27.11 3°12.526 1.8 280 21.4 101910 44
2009-09-08 12:41 51°27.07 3°12.605 1.4 345 21.3 101910 45
2009-09-08 12:42 51°27.044 3°12.681 1.6 277 21.4 101910 43
2009-09-08 12:43 51°27.025 3°12.761 1.4 349 21.4 101900 43
2009-09-08 12:44 51°27.016 3°12.847 1.8 278 21.5 101910 44
2009-09-08 12:45 51°27.013 3°12.946 2.4 345 21.6 101910 42
2009-09-08 12:46 51°27.005 3°13.053 1.8 280 21.7 101900 43
2009-09-08 12:47 51°26.994 3°13.167 1.2 285 21.7 101900 43
2009-09-08 12:48 51°26.982 3°13.282 1.7 346 21.6 101900 43
2009-09-08 12:49 51°26.97 3°13.392 1.7 354 21.8 101900 44
2009-09-08 12:50 51°26.957 3°13.505 1.3 356 21.7 101910 43
2009-09-08 12:51 51°26.945 3°13.61 1 4 21.7 101910 41
2009-09-08 12:52 51°26.932 3°13.716 1.2 357 21.8 101910 43
2009-09-08 12:53 51°26.919 3°13.818 1.1 352 21.8 101900 42
2009-09-08 12:54 51°26.906 3°13.922 -999 356 21.8 101910 43
2009-09-08 12:55 51°26.894 3°14.026 -999 353 21.9 101910 43
2009-09-08 12:56 51°26.892 3°14.125 -999 351 21.9 101910 43
2009-09-08 12:57 51°26.899 3°14.22 -999 280 22.1 101900 44
2009-09-08 12:58 51°26.907 3°14.316 -999 348 22.3 101900 44
2009-09-08 12:59 51°26.916 3°14.412 -999 350 22.4 101900 44
2009-09-08 13:00 51°26.927 3°14.507 1 351 22.4 101900 41
2009-09-08 13:01 51°26.938 3°14.601 -999 354 22.3 101910 42
2009-09-08 13:02 51°26.952 3°14.693 -999 354 22.3 101900 42
2009-09-08 13:03 51°26.968 3°14.784 -999 353 22.3 101900 43
2009-09-08 13:04 51°26.984 3°14.877 -999 353 22.4 101900 43
2009-09-08 13:05 51°27.001 3°14.969 -999 353 22.6 101900 43
2009-09-08 13:06 51°27.027 3°15.044 -999 304 22.8 101900 42
2009-09-08 13:07 51°27.059 3°15.113 -999 304 23 101900 41
2009-09-08 13:08 51°27.09 3°15.185 -999 305 23.2 101900 41
2009-09-08 13:09 51°27.121 3°15.26 -999 304 23.4 101900 40
2009-09-08 13:10 51°27.152 3°15.336 -999 305 23.6 101900 40
2009-09-08 13:11 51°27.179 3°15.422 -999 336 23.7 101900 40
2009-09-08 13:12 51°27.189 3°15.53 -999 349 23.8 101900 40
2009-09-08 13:13 51°27.17 3°15.645 2.2 275 23.7 101890 37
2009-09-08 13:14 51°27.125 3°15.748 -999 352 23.3 101890 38
2009-09-08 13:15 51°27.063 3°15.823 -999 350 23.1 101890 37
2009-09-08 13:16 51°27.011 3°15.866 1.9 343 23.1 101890 37
2009-09-08 13:17 51°26.969 3°15.896 -999 345 23.2 101890 37
2009-09-08 13:18 51°26.928 3°15.902 2.8 302 23.3 101890 37
2009-09-08 13:19 51°26.913 3°15.864 3.3 303 23.5 101890 37
2009-09-08 13:20 51°26.921 3°15.719 4.9 303 23.7 101880 37
2009-09-08 13:21 51°26.934 3°15.501 6.1 302 23.7 101880 36
2009-09-08 13:22 51°26.878 3°15.288 6.4 328 23.6 101880 37
2009-09-08 13:23 51°26.819 3°15.077 5.6 302 23.4 101880 38
2009-09-08 13:24 51°26.803 3°14.858 5.6 301 23.4 101880 38
2009-09-08 13:25 51°26.81 3°14.646 4.5 330 23.3 101880 39
2009-09-08 13:26 51°26.849 3°14.444 3.8 330 23.1 101890 40
2009-09-08 13:27 51°26.908 3°14.331 2.1 336 22.9 101880 41
2009-09-08 13:28 51°26.95 3°14.304 0.7 345 22.9 101880 42
2009-09-08 13:29 51°26.969 3°14.32 -999 11 22.8 101880 43
2009-09-08 13:30 51°26.969 3°14.357 -999 16 22.6 101880 42
2009-09-08 13:31 51°26.962 3°14.398 -999 15 22.5 101880 43
2009-09-08 13:32 51°26.955 3°14.439 -999 9 22.3 101880 42
2009-09-08 13:33 51°26.948 3°14.481 -999 9 22.1 101870 42
2009-09-08 13:34 51°26.94 3°14.523 -999 9 22.1 101870 42
2009-09-08 13:35 51°26.933 3°14.565 -999 10 22.1 101870 42
2009-09-08 13:36 51°26.93 3°14.63 0.9 339 22.2 101870 41
2009-09-08 13:37 51°26.902 3°14.748 1.8 283 22.3 101870 42
2009-09-08 13:38 51°26.824 3°14.785 3.1 280 22.6 101870 41
2009-09-08 13:39 51°26.725 3°14.73 4.7 277 22.8 101870 39
2009-09-08 13:40 51°26.574 3°14.645 6.1 300 23 101860 38
2009-09-08 13:41 51°26.402 3°14.561 5.6 329 23 101860 39
2009-09-08 13:42 51°26.221 3°14.482 6.6 332 23 101860 39
2009-09-08 13:43 51°26.048 3°14.403 6.8 333 23.1 101860 38
2009-09-08 13:44 51°25.87 3°14.321 6.1 332 23.1 101860 37
2009-09-08 13:45 51°25.699 3°14.242 6.8 333 23.3 101860 37
2009-09-08 13:46 51°25.518 3°14.175 6.7 283 23.4 101850 37
2009-09-08 13:47 51°25.332 3°14.137 7.1 330 23.5 101850 36
2009-09-08 13:48 51°25.146 3°14.105 7 281 23.6 101850 36
2009-09-08 13:49 51°24.96 3°14.073 6.8 331 23.7 101850 37
2009-09-08 13:50 51°24.779 3°14.04 7.2 331 23.7 101850 36
2009-09-08 13:51 51°24.592 3°14.014 6.5 279 23.7 101850 37
2009-09-08 13:52 51°24.415 3°13.994 6.2 278 23.7 101850 37
2009-09-08 13:53 51°24.239 3°13.971 6.1 278 23.6 101850 37
2009-09-08 13:54 51°24.07 3°13.95 6.3 278 23.5 101850 37
2009-09-08 13:55 51°23.905 3°13.918 6.3 277 23.6 101850 36
2009-09-08 13:56 51°23.753 3°13.852 5.9 278 23.7 101850 36
2009-09-08 13:57 51°23.614 3°13.746 5.1 278 23.8 101850 37
2009-09-08 13:58 51°23.478 3°13.621 5.7 279 23.8 101850 37
2009-09-08 13:59 51°23.358 3°13.485 7 279 23.9 101840 36
2009-09-08 14:00 51°23.28 3°13.295 6 283 24.1 101840 35
2009-09-08 14:01 51°23.214 3°13.1 5.3 285 24.2 101840 37
2009-09-08 14:02 51°23.148 3°12.897 4.8 283 24.2 101840 37
2009-09-08 14:03 51°23.083 3°12.695 4.9 285 24.2 101840 38
2009-09-08 14:04 51°23.048 3°12.476 6.2 285 24 101840 41
2009-09-08 14:05 51°23.023 3°12.252 5.5 283 23.7 101840 40
2009-09-08 14:06 51°23.02 3°12.027 6.6 279 23.6 101840 41
2009-09-08 14:07 51°23.028 3°11.791 6.4 284 23.6 101830 38
2009-09-08 14:08 51°23.037 3°11.558 7.7 280 23.7 101840 37
2009-09-08 14:09 51°23.045 3°11.324 7.1 283 23.8 101840 38
2009-09-08 14:10 51°23.055 3°11.09 7.3 278 23.9 101840 37
2009-09-08 14:11 51°23.065 3°10.849 6.9 284 24 101830 36
2009-09-08 14:12 51°23.073 3°10.626 3.6 285 24 101840 37
2009-09-08 14:13 51°23.079 3°10.526 2.5 280 23.9 101840 38
2009-09-08 14:14 51°23.108 3°10.485 2 280 23.8 101840 37
2009-09-08 14:15 51°23.153 3°10.455 2.7 278 23.7 101840 39
2009-09-08 14:16 51°23.22 3°10.467 2.7 278 23.7 101840 39
2009-09-08 14:17 51°23.289 3°10.503 2.2 283 23.7 101840 38
2009-09-08 14:18 51°23.36 3°10.531 2.4 280 23.7 101840 38
2009-09-08 14:19 51°23.427 3°10.548 2.3 339 23.8 101840 38
2009-09-08 14:20 51°23.494 3°10.554 2.2 278 23.7 101840 38
2009-09-08 14:21 51°23.561 3°10.557 2.5 277 23.5 101840 38
2009-09-08 14:22 51°23.627 3°10.56 2.9 284 23.5 101840 38
2009-09-08 14:23 51°23.699 3°10.582 2.3 277 23.6 101840 39
2009-09-08 14:24 51°23.767 3°10.664 2.2 284 23.6 101840 37
2009-09-08 14:25 51°23.816 3°10.784 1.8 282 23.7 101840 38
2009-09-08 14:26 51°23.843 3°10.913 -999 303 23.9 101840 37
2009-09-08 14:27 51°23.856 3°11.045 -999 281 23.9 101840 37
2009-09-08 14:28 51°23.869 3°11.177 -999 303 24 101840 37
2009-09-08 14:29 51°23.889 3°11.309 -999 280 23.9 101840 37
2009-09-08 14:30 51°23.911 3°11.441 -999 280 23.9 101840 37
2009-09-08 14:31 51°23.929 3°11.572 -999 280 23.9 101840 38
2009-09-08 14:32 51°23.945 3°11.707 -999 281 23.8 101840 39
2009-09-08 14:33 51°23.961 3°11.841 -999 281 23.7 101840 39
2009-09-08 14:34 51°23.976 3°11.972 -999 281 23.6 101840 38
2009-09-08 14:35 51°23.991 3°12.102 2.5 286 23.6 101840 38
2009-09-08 14:36 51°24.007 3°12.236 1.8 287 23.6 101830 41
2009-09-08 14:37 51°24.022 3°12.367 1.5 278 23.3 101840 41
2009-09-08 14:38 51°24.036 3°12.497 -999 281 23.2 101840 40
2009-09-08 14:39 51°24.051 3°12.628 -999 281 23.2 101830 39
2009-09-08 14:40 51°24.066 3°12.757 -999 281 23.3 101840 40
2009-09-08 14:41 51°24.082 3°12.887 1.7 278 23.3 101840 39
2009-09-08 14:41 51°24.091 3°13.01 -999 316 23.4 101840 42
2009-09-08 14:43 51°24.091 3°13.157 -999 315 23.3 101840 40
2009-09-08 14:44 51°24.091 3°13.285 -999 27 23.3 101840 39
2009-09-08 14:45 51°24.091 3°13.416 -999 248 23.4 101830 38
2009-09-08 14:46 51°24.093 3°13.545 -999 25 23.5 101830 38
2009-09-08 14:47 51°24.094 3°13.671 -999 26 23.6 101830 37
2009-09-08 14:48 51°24.096 3°13.801 -999 26 23.7 101830 37
2009-09-08 14:49 51°24.098 3°13.926 -999 26 23.7 101830 37
2009-09-08 14:50 51°24.101 3°14.054 -999 25 23.8 101830 36
2009-09-08 14:51 51°24.1 3°14.178 -999 25 23.8 101830 36
2009-09-08 14:52 51°24.092 3°14.293 -999 248 23.9 101830 36
2009-09-08 14:53 51°24.079 3°14.404 -999 248 24 101830 35
2009-09-08 14:54 51°24.064 3°14.513 -999 248 24 101830 38
2009-09-08 14:55 51°24.041 3°14.629 -999 26 24 101830 40
2009-09-08 14:56 51°23.973 3°14.736 -999 317 23.7 101830 37
2009-09-08 14:57 51°23.925 3°14.791 1.1 352 23.7 101830 38
2009-09-08 14:58 51°23.875 3°14.76 2.3 346 23.8 101830 36
2009-09-08 14:59 51°23.851 3°14.72 -999 353 23.8 101830 36
2009-09-08 15:00 51°23.849 3°14.71 -999 1 23.8 101820 37
2009-09-08 15:01 51°23.854 3°14.712 1.8 357 23.7 101820 36
2009-09-08 15:02 51°23.823 3°14.635 4.3 342 23.7 101820 36
2009-09-08 15:03 51°23.738 3°14.46 5.8 341 23.6 101830 41
2009-09-08 15:04 51°23.643 3°14.267 5.7 341 23.4 101820 37
2009-09-08 15:05 51°23.547 3°14.073 5.7 343 23.5 101820 37
2009-09-08 15:06 51°23.452 3°13.879 7.2 343 23.4 101810 36
2009-09-08 15:07 51°23.358 3°13.684 5.9 342 23.4 101810 36
2009-09-08 15:08 51°23.257 3°13.488 6.7 342 23.4 101820 37
2009-09-08 15:09 51°23.161 3°13.299 5.9 342 23.3 101810 37
2009-09-08 15:10 51°23.066 3°13.097 7.1 341 23.3 101810 37
2009-09-08 15:11 51°22.972 3°12.892 6 342 23.4 101810 37
2009-09-08 15:12 51°22.878 3°12.683 6.7 341 23.3 101810 38
2009-09-08 15:13 51°22.781 3°12.478 6.6 342 23.1 101810 39
2009-09-08 15:14 51°22.69 3°12.299 6.2 342 22.9 101810 38
2009-09-08 15:15 51°22.639 3°12.131 6.1 340 22.9 101810 38
2009-09-08 15:16 51°22.596 3°11.932 5.7 341 23.1 101810 38
2009-09-08 15:17 51°22.545 3°11.73 6.4 341 23.2 101810 38
2009-09-08 15:18 51°22.494 3°11.538 4.9 342 23.1 101820 39
2009-09-08 15:19 51°22.46 3°11.43 4.6 347 22.9 101820 40
2009-09-08 15:20 51°22.434 3°11.338 5.4 341 22.6 101820 38
2009-09-08 15:21 51°22.454 3°11.289 3.4 329 22.8 101820 37
2009-09-08 15:22 51°22.476 3°11.305 2.7 316 23.1 101810 37
2009-09-08 15:23 51°22.496 3°11.337 3.1 24 23.2 101810 37
2009-09-08 15:24 51°22.514 3°11.375 2.7 243 23.4 101810 37
2009-09-08 15:25 51°22.531 3°11.417 3.4 249 23.4 101810 36
2009-09-08 15:26 51°22.546 3°11.461 2.7 250 23.5 101810 36
2009-09-08 15:27 51°22.56 3°11.506 2.6 250 23.6 101810 35
2009-09-08 15:28 51°22.572 3°11.549 2.9 250 23.7 101810 36
2009-09-08 15:29 51°22.586 3°11.597 1.1 251 23.8 101810 35
2009-09-08 15:30 51°22.608 3°11.663 -999 265 23.9 101810 35
2009-09-08 15:31 51°22.615 3°11.756 -999 26 24 101810 35
2009-09-08 15:32 51°22.588 3°11.825 2.2 9 24 101820 36
2009-09-08 15:33 51°22.524 3°11.754 6.4 344 23.9 101810 35
2009-09-08 15:34 51°22.441 3°11.55 7.6 340 23.8 101810 36
2009-09-08 15:35 51°22.355 3°11.319 7.9 340 23.7 101810 36
2009-09-08 15:36 51°22.271 3°11.087 6.5 340 23.5 101800 36
2009-09-08 15:37 51°22.173 3°10.873 7.6 341 23.5 101810 37
2009-09-08 15:38 51°22.074 3°10.662 7.4 343 23.4 101810 37
2009-09-08 15:39 51°21.976 3°10.452 5.7 340 23.4 101810 37
2009-09-08 15:40 51°21.877 3°10.238 6.1 339 23.3 101820 38
2009-09-08 15:41 51°21.779 3°10.02 6.8 338 23.3 101820 38
2009-09-08 15:42 51°21.68 3°9.803 6.9 338 23.2 101820 39
2009-09-08 15:43 51°21.583 3°9.585 6 338 23 101820 41
2009-09-08 15:44 51°21.486 3°9.367 7.3 338 22.8 101820 41
2009-09-08 15:45 51°21.388 3°9.148 6.2 336 22.5 101820 42
2009-09-08 15:46 51°21.29 3°8.925 6 336 22.2 101820 43
2009-09-08 15:47 51°21.191 3°8.698 7 336 22 101820 44
2009-09-08 15:48 51°21.089 3°8.467 7.5 337 21.9 101820 43
2009-09-08 15:49 51°20.984 3°8.24 7.4 336 22 101820 43
2009-09-08 15:50 51°20.882 3°8.015 6.3 336 22 101820 43
2009-09-08 15:51 51°20.776 3°7.797 7 336 21.9 101820 43
2009-09-08 15:52 51°20.671 3°7.576 5.9 334 21.8 101820 43
2009-09-08 15:53 51°20.568 3°7.356 6.7 335 21.8 101820 43
2009-09-08 15:54 51°20.465 3°7.138 5.6 332 21.8 101830 43
2009-09-08 15:55 51°20.364 3°6.924 6.3 333 21.7 101830 43
2009-09-08 15:56 51°20.262 3°6.705 5.9 332 21.7 101820 44
2009-09-08 15:57 51°20.162 3°6.488 6.7 332 21.6 101830 44
2009-09-08 15:58 51°20.066 3°6.264 7.2 334 21.5 101820 44
2009-09-08 15:59 51°19.967 3°6.047 8.1 336 21.4 101820 45
2009-09-08 16:00 51°19.869 3°5.822 8.6 338 21.3 101820 46
2009-09-08 16:01 51°19.779 3°5.593 7.4 338 21.2 101820 45
2009-09-08 16:02 51°19.687 3°5.361 8.3 336 21.1 101820 45
2009-09-08 16:03 51°19.597 3°5.131 7.5 339 21 101810 44
2009-09-08 16:04 51°19.499 3°4.912 8.5 340 21.1 101810 44
2009-09-08 16:05 51°19.4 3°4.691 8.8 339 21.2 101810 43
2009-09-08 16:06 51°19.302 3°4.469 8.4 338 21.2 101810 42
2009-09-08 16:07 51°19.203 3°4.246 7.3 340 21.3 101810 43
2009-09-08 16:08 51°19.107 3°4.021 7.1 339 21.3 101820 43
2009-09-08 16:09 51°19.01 3°3.796 6.9 338 21.3 101820 42
2009-09-08 16:10 51°18.911 3°3.576 6.7 336 21.3 101820 41
2009-09-08 16:11 51°18.807 3°3.36 6.9 334 21.3 101820 42
2009-09-08 16:12 51°18.704 3°3.144 6.8 334 21.3 101820 42
2009-09-08 16:13 51°18.612 3°2.924 7.6 333 21.2 101820 43
2009-09-08 16:14 51°18.519 3°2.695 6.5 333 21.1 101820 43
2009-09-08 16:15 51°18.428 3°2.47 6.5 333 21 101820 43
2009-09-08 16:16 51°18.336 3°2.243 7.5 331 21 101820 43
2009-09-08 16:17 51°18.244 3°2.013 7.6 331 21 101820 42
2009-09-08 16:18 51°18.153 3°1.784 7.7 332 21 101820 42
2009-09-08 16:19 51°18.06 3°1.557 6.7 331 21 101820 43
2009-09-08 16:20 51°17.969 3°1.33 6.5 332 21 101820 43
2009-09-08 16:21 51°17.878 3°1.104 6.9 333 20.9 101820 44
2009-09-08 16:22 51°17.786 3°0.876 7 335 20.8 101820 43
2009-09-08 16:23 51°17.694 3°0.647 6.5 337 20.7 101820 44
2009-09-08 16:24 51°17.602 3°0.423 7.6 339 20.7 101820 44
2009-09-08 16:25 51°17.509 3°0.187 6.7 338 20.6 101820 44
2009-09-08 16:26 51°17.417 2°59.957 7.8 338 20.7 101820 43
2009-09-08 16:27 51°17.325 2°59.723 7.9 337 20.7 101820 43
2009-09-08 16:28 51°17.23 2°59.493 7.9 337 20.7 101820 43
2009-09-08 16:29 51°17.136 2°59.262 7 335 20.6 101820 43
2009-09-08 16:30 51°17.042 2°59.03 8.1 336 20.6 101820 43
2009-09-08 16:31 51°16.947 2°58.797 7.6 336 20.6 101820 44
2009-09-08 16:32 51°16.854 2°58.563 7.9 339 20.5 101820 43
2009-09-08 16:33 51°16.762 2°58.327 7.5 340 20.6 101820 42
2009-09-08 16:34 51°16.666 2°58.096 7 341 20.7 101820 42
2009-09-08 16:35 51°16.571 2°57.864 7.9 339 20.8 101820 42
2009-09-08 16:36 51°16.475 2°57.631 6.9 339 20.8 101820 42
2009-09-08 16:37 51°16.381 2°57.397 6.8 339 20.8 101820 41
2009-09-08 16:38 51°16.287 2°57.162 8.2 340 20.8 101820 41
2009-09-08 16:39 51°16.192 2°56.926 6.9 340 20.8 101820 41
2009-09-08 16:40 51°16.094 2°56.694 7.6 339 20.8 101820 42
2009-09-08 16:41 51°15.991 2°56.467 7.2 335 20.8 101820 43
2009-09-08 16:42 51°15.885 2°56.243 7.1 335 20.7 101820 43
2009-09-08 16:43 51°15.78 2°56.019 6.9 337 20.6 101820 44
2009-09-08 16:44 51°15.672 2°55.798 5.9 337 20.5 101820 43
2009-09-08 16:45 51°15.561 2°55.581 5.9 338 20.5 101820 43
2009-09-08 16:46 51°15.438 2°55.381 6.8 340 20.5 101810 43
2009-09-08 16:47 51°15.298 2°55.214 6.7 340 20.6 101820 43
2009-09-08 16:48 51°15.145 2°55.077 5.7 339 20.7 101810 42
2009-09-08 16:49 51°14.984 2°54.974 5.4 338 20.8 101820 41
2009-09-08 16:50 51°14.812 2°54.919 6.2 339 20.8 101820 41
2009-09-08 16:51 51°14.635 2°54.916 6.1 338 20.9 101820 41
2009-09-08 16:52 51°14.461 2°54.991 5.7 339 20.9 101820 40
2009-09-08 16:53 51°14.319 2°55.162 5.1 338 21 101820 40
2009-09-08 16:54 51°14.191 2°55.349 5.2 340 21.1 101820 40
2009-09-08 16:55 51°14.057 2°55.464 2.4 355 21.3 101820 38
2009-09-08 16:56 51°13.941 2°55.548 2.7 345 21.6 101820 35
2009-09-08 16:57 51°13.842 2°55.619 0.8 355 22 101820 34
2009-09-08 16:58 51°13.764 2°55.71 1.8 9 22.4 101820 33
2009-09-08 16:59 51°13.706 2°55.819 1.1 338 22.6 101820 34
2009-09-08 17:00 51°13.676 2°55.906 -999 34 22.8 101820 34
2009-09-08 17:01 51°13.664 2°55.955 0.4 20 22.9 101820 34